Simultaneous Nadir Overpasses (SNOs) Predictions

Prediction of SNOs between METOP-B and TERRA Satellite Orbit:

Table of predicted SNOs for the next 14.0 days since TLE Epoch: 10/31/2020
Index Date (METOP-B) Time (METOP-B) Lat,Lon (METOP-B) SZA (METOP-B ) Date (TERRA) Time (TERRA) Lat,Lon (TERRA) SZA (TERRA ) Distance(km) Time Diff (sec)
1 10/31/2020 23:26:50 81.28,-125.28 98.84 10/31/2020 23:28:01 81.29,-125.17 98.89 1.88 71
2 11/01/2020 00:17:29 -81.29, 42.55 81.09 11/01/2020 00:17:27 -81.28, 42.39 81.12 2.83 2
3 11/03/2020 19:01:12 81.29, -58.66 99.74 11/03/2020 19:02:15 81.29, -58.66 99.78 0.35 63
4 11/03/2020 19:51:53 -81.29, 108.78 80.24 11/03/2020 19:51:42 -81.29, 108.93 80.23 2.47 11
5 11/06/2020 14:35:35 81.29, 7.94 100.61 11/06/2020 14:36:30 81.29, 7.80 100.62 2.35 55
6 11/06/2020 15:26:16 -81.29, 175.38 79.37 11/06/2020 15:25:57 -81.29, 175.42 79.38 0.61 19
7 11/09/2020 10:09:59 81.29, 74.13 101.39 11/09/2020 10:10:45 81.29, 74.22 101.42 1.56 46
8 11/09/2020 11:00:39 -81.29,-118.04 78.55 11/09/2020 11:00:12 -81.29,-118.14 78.58 1.73 27
9 11/12/2020 05:44:21 81.29, 140.69 102.17 11/12/2020 05:44:59 81.29, 140.59 102.17 1.70 38
